Retour au catalogue

BREEZE-M DEB

LostHEO
NORAD 34252·DEBRIS·🇷🇺 Russia

Lancé Feb 28, 2006 depuis Baikonur Cosmodrome

Loading…

Prochains Passages (prochaines 24 heures)

TLE

PériméSource: Space-Track

Époque: Sep 9, 2025, 23:41 UTC

1 34252U 06006BT  25252.98713064  .00000558  00000-0  99233-3 0  9999
2 34252  51.6853  18.4618 5082912 230.6790  72.1721  5.25225453337835

Suivez BREEZE-M DEB en temps réel avec AllMySat

Download on the App Store